Somerville, NJ

7:16 PM EDT on August 24, 2019 (GMT -0400)
Somerset

Weather History for KSMQ - July, 2019

Change the Weather History Date:

Monday, July 22, 2019

  Actual Average Record
Temperature  
Mean Temperature 81 °F -  
Max Temperature 91 °F 85 °F 104 °F (2011)
Min Temperature 71 °F 62 °F 50 °F (1944)
Cooling Degree Days 16    
Growing Degree Days 31 (Base 50)    
Moisture  
Dew Point 72 °F    
Average Humidity 86    
Maximum Humidity 100    
Minimum Humidity 55    
Precipitation  
Precipitation 0.52 in - - ()
Sea Level Pressure  
Sea Level Pressure 29.77 in    
Wind  
Wind Speed 3 mph (West)    
Max Wind Speed 13 mph    
Max Gust Speed 22 mph    
Visibility 6 miles    
Events Rain , Thunderstorm    
Averages and records for this station are not official NWS values.
T = Trace of Precipitation, MM = Missing Value Source: NWS Daily Summary

Daily Weather History Graph

Daily Weather History Graph

Search for Another Location

Airport or City:

Astronomy

Jul. 22, 2019 Rise Set
Actual Time 5:46 AM EDT 8:23 PM EDT
Civil Twilight 5:14 AM EDT 8:55 PM EDT
Nautical Twilight 4:34 AM EDT 9:34 PM EDT
Astronomical Twilight 3:50 AM EDT 10:19 PM EDT
Moon 11:41 PM EDT (7/22) 11:02 AM EDT (7/22)
Length of Visible Light 15h 40m
Length of Day
14h 37m
Waning Gibbous, 72% of the Moon is Illuminated
Jul 22
Waning Gibbous
Jul 24
Last Quarter
Jul 31
New
Aug 7
First Quarter
Aug 15
Full

Hourly Weather History & Observations

Time (EDT) Temp. Heat Index Dew Point Humidity Pressure Visibility Wind Dir Wind Speed Gust Speed Precip Events Conditions
12:53 AM 73.9 °F - 72.0 °F 93% 29.88 in 9.0 mi Calm Calm - 0.01 in   Scattered Clouds
1:53 AM 75.0 °F - 71.1 °F 87% 29.80 in 10.0 mi North 8.1 mph - 0.05 in Rain Light Rain
2:53 AM 73.9 °F - 72.0 °F 93% 29.84 in 9.0 mi South 4.6 mph - 0.01 in   Clear
3:53 AM 73.0 °F - 72.0 °F 96% 29.83 in 8.0 mi Calm Calm - N/A   Clear
4:44 AM 72.0 °F - 71.1 °F 97% 29.83 in 1.5 mi Calm Calm - N/A   Clear
4:53 AM 72.0 °F - 71.1 °F 97% 29.82 in 1.8 mi Calm Calm - N/A   Clear
4:55 AM 72.0 °F - 71.1 °F 97% 29.83 in 3.0 mi Calm Calm - N/A   Clear
5:22 AM 72.0 °F - 71.1 °F 97% 29.84 in 2.5 mi NW 3.5 mph - N/A   Scattered Clouds
5:38 AM 72.0 °F - 71.1 °F 97% 29.84 in 5.0 mi Calm Calm - N/A   Scattered Clouds
5:53 AM 72.0 °F - 70.0 °F 93% 29.84 in 4.0 mi Calm Calm - N/A   Partly Cloudy
6:06 AM 71.1 °F - 71.1 °F 100% 29.84 in 2.5 mi Calm Calm - N/A   Clear
6:19 AM 73.0 °F - 71.1 °F 93% 29.84 in 4.0 mi Calm Calm - N/A   Clear
6:53 AM 73.0 °F - 72.0 °F 96% 29.84 in 5.0 mi Calm Calm - N/A   Clear
7:50 AM 75.2 °F - 71.6 °F 89% 29.85 in 6.0 mi Calm Calm - N/A   Partly Cloudy
7:53 AM 75.0 °F - 72.0 °F 90% 29.85 in 6.0 mi Calm Calm - N/A   Partly Cloudy
8:53 AM 77.0 °F - 73.0 °F 88% 29.85 in 9.0 mi Calm Calm - N/A   Scattered Clouds
9:53 AM 80.1 °F 84.2 °F 73.0 °F 79% 29.83 in 10.0 mi Calm Calm - N/A   Clear
10:53 AM 84.0 °F 90.2 °F 73.0 °F 69% 29.81 in 10.0 mi Variable 4.6 mph - N/A   Clear
11:53 AM 87.1 °F 95.4 °F 73.9 °F 65% 29.79 in 10.0 mi Variable 5.8 mph - N/A   Clear
12:53 PM 87.1 °F 94.5 °F 73.0 °F 63% 29.77 in 10.0 mi Variable 3.5 mph - N/A   Mostly Cloudy
1:53 PM 88.0 °F 96.5 °F 73.9 °F 63% 29.74 in 9.0 mi Variable 4.6 mph - N/A   Mostly Cloudy
2:53 PM 89.1 °F 98.0 °F 73.9 °F 61% 29.71 in 9.0 mi South 6.9 mph - N/A   Mostly Cloudy
3:53 PM 89.1 °F 96.0 °F 72.0 °F 57% 29.68 in 9.0 mi Variable 4.6 mph - N/A   Mostly Cloudy
4:48 PM 91.4 °F 100.1 °F 73.4 °F 55% 29.66 in 9.0 mi SSW 9.2 mph - N/A Thunderstorm Clear
4:53 PM 90.0 °F 97.9 °F 73.0 °F 57% 29.65 in 9.0 mi Variable 5.8 mph - N/A Thunderstorm Clear
5:06 PM 89.1 °F 96.0 °F 72.0 °F 57% 29.66 in 9.0 mi Variable 3.5 mph - N/A   Partly Cloudy
5:44 PM 88.0 °F 94.7 °F 72.0 °F 59% 29.66 in 9.0 mi Variable 4.6 mph - 0.00 in Rain , Thunderstorm Light Rain
5:53 PM 87.1 °F 93.6 °F 72.0 °F 61% 29.67 in 8.0 mi Variable 3.5 mph - 0.00 in Rain , Thunderstorm Light Rain
6:13 PM 82.9 °F 88.8 °F 73.0 °F 72% 29.69 in 10.0 mi NW 12.7 mph 21.9 mph 0.00 in Thunderstorm Thunderstorm
6:33 PM 75.0 °F - 71.1 °F 87% 29.73 in 2.5 mi Variable 5.8 mph - 0.02 in Rain , Thunderstorm Light Thunderstorms and Rain
6:42 PM 73.9 °F - 71.1 °F 91% 29.75 in 3.0 mi Variable 5.8 mph - 0.04 in Rain , Thunderstorm Thunderstorms and Rain
6:46 PM 73.0 °F - 71.1 °F 93% 29.77 in 1.8 mi SSW 6.9 mph - 0.07 in Rain , Thunderstorm Heavy Thunderstorms and Rain
6:51 PM 71.6 °F - 71.6 °F 100% 29.77 in 0.8 mi Variable 4.6 mph - 0.17 in Rain , Thunderstorm Heavy Thunderstorms and Rain
6:53 PM 72.0 °F - 71.1 °F 97% 29.76 in 0.8 mi Variable 4.6 mph - 0.21 in Rain , Thunderstorm Heavy Thunderstorms and Rain
7:00 PM 72.0 °F - 71.1 °F 97% 29.75 in 0.8 mi West 3.5 mph - 0.04 in Rain , Thunderstorm Rain
7:08 PM 73.0 °F - 71.1 °F 93% 29.74 in 2.0 mi NNW 4.6 mph - 0.06 in Rain Rain
7:30 PM 73.0 °F - 71.1 °F 93% 29.72 in 4.0 mi NW 4.6 mph - 0.10 in Rain Light Rain
7:53 PM 72.0 °F - 71.1 °F 97% 29.74 in 7.0 mi South 3.5 mph - 0.12 in Rain Light Rain
8:53 PM 73.9 °F - 72.0 °F 93% 29.74 in 10.0 mi Calm Calm - 0.01 in Rain Light Rain
9:53 PM 73.9 °F - 72.0 °F 93% 29.74 in 10.0 mi Calm Calm - 0.00 in   Scattered Clouds
10:03 PM 73.0 °F - 72.0 °F 96% 29.75 in 10.0 mi Calm Calm - N/A   Scattered Clouds
10:26 PM 73.0 °F - 72.0 °F 96% 29.76 in 3.0 mi Calm Calm - 0.05 in Rain Heavy Rain
10:28 PM 73.0 °F - 72.0 °F 96% 29.76 in 1.8 mi Calm Calm - 0.09 in Rain Heavy Rain
10:35 PM 73.0 °F - 72.0 °F 96% 29.75 in 2.0 mi East 3.5 mph - 0.11 in Rain Light Rain
10:37 PM 73.0 °F - 72.0 °F 96% 29.75 in 3.0 mi Calm Calm - 0.11 in Rain Light Rain
10:53 PM 73.0 °F - 72.0 °F 96% 29.75 in 9.0 mi Calm Calm - 0.11 in   Mostly Cloudy
11:53 PM 73.0 °F - 72.0 °F 96% 29.76 in 9.0 mi Calm Calm - N/A   Mostly Cloudy